FENGYUN 1C DEB, 29846

Orbit data source: Space-Track

FENGYUN 1C DEB, 29846 is space debris in SSO originally from a launch on Mon, 10 May 1999 UTC launched from the Taiyaun Space Center, China (TSC). Fengyun 1C debris stems from the Chinese weather satellite Fengyun-1C, which was intentionally destroyed by a Chinese anti-satellite missile in 2007. This event dramatically increased the amount of space debris, with thousands of trackable fragments posing hazards to satellites and human spaceflight. The Fengyun 1C debris cloud has become a focal point in discussions about space sustainability and the need for international regulations to prevent the creation of new debris.

Loading next visibility...
Identifier
29846, 1999-025EQ
Orbit
SSO
Country
Flag of CNCN / PRC
Related business
Manufacturer
Unknown
Mission
Spacecraft
Bus & Motor
Unknown
Mass
Unknown
Launch date (UTC)
1999-05-10 (27 years ago)
Launch vehicle
Unknown
Launch site
Taiyaun Space Center, China (TSC)
Object type
Payload
Rocket body
Debris
Shape & HBR
Unknown shape, 0.1 m
Radar Cross Section
Small (<0.1 m²)

Expand to show TLE details & history
Last TLE update: 3 hours ago

TLE from 3 hours ago
0 FENGYUN 1C DEB
1 29846U 99025EQ  26123.87162203  .00000189  00000-0  10721-3 0  9999
2 29846  98.6310 167.2309 0083567 253.9297 285.5814 14.19182278998756
Epoch: 2026-05-03T20:55Z
TLE epoch observation values (Epoch: 2026-05-03T20:55:08.143Z)
Latitude
1.28936°
Longitude
171.87273°
Altitude
815.167 km
Speed
7.454 km/s
True Right ascension
23h 09m 42s
True Declination
1° 16' 54"
Sunlit
Object was in daylight at epoch
Visualization orbit readout
Latitude
Unknown
Longitude
Unknown
Altitude
Unknown
Speed
Unknown
Apparent Right ascension
Unknown
Apparent Declination
Unknown
Sunlit
N/A
Visualization observer readout
Local Sidereal Time
07:38:54
Azimuth
Unknown
Elevation
Unknown
Doppler factor
Unknown
Orbital elements
Apogee altitude
885.472 km
Perigee altitude
765.078 km
Semi-major axis
7,203.412 km
Eccentricity
0.00836
Inclination
98.631°
RAAN
167.2309°
Arg. of periapsis
253.9297°
True anomaly
284.65643°
Mean anomaly
285.5814°
Eccentric anomaly
285.11917°
Mean motion
3.55006 °/min
Orbital period
101.41 mins
BSTAR
0.00010721
Loading maneuver chart data...
Computing Atmospheric mass density...
Loading historical data...
Loading historical data...
Loading historical data...
Loading historical data...
Loading historical data...
Loading historical data...
Loading historical data...

Documentation

Showing up to 5 results
|